Mosinee, WI

5:30 PM CST on February 22, 2018 (GMT -0600)
Central Wisconsin

Weather History for KCWA - June, 2013

Change the Weather History Date:

Wednesday, June 26, 2013

  Actual Average Record
Temperature  
Mean Temperature 72 °F -  
Max Temperature 80 °F 75 °F 89 °F (1999)
Min Temperature 64 °F 54 °F 44 °F (2004)
Cooling Degree Days 7    
Growing Degree Days 22 (Base 50)    
Moisture  
Dew Point 68 °F    
Average Humidity 95    
Maximum Humidity 100    
Minimum Humidity 70    
Precipitation  
Precipitation 0.00 in - - ()
Sea Level Pressure  
Sea Level Pressure 29.78 in    
Wind  
Wind Speed 5 mph (SE)    
Max Wind Speed 12 mph    
Max Gust Speed -    
Visibility 6 miles    
Events Fog , Rain , Thunderstorm    
Averages and records for this station are not official NWS values.
T = Trace of Precipitation, MM = Missing Value Source: NWS Daily Summary

Daily Weather History Graph

Daily Weather History Graph

Search for Another Location

Airport or City:

Trip Planner

Search our weather history database for the weather conditions in past years. The results will help you decide how hot, cold, wet, or windy it might be!

Date:

Astronomy

Jun. 26, 2013 Rise Set
Actual Time 5:14 AM CDT 8:48 PM CDT
Civil Twilight 4:37 AM CDT 9:25 PM CDT
Nautical Twilight 3:48 AM CDT 10:14 PM CDT
Astronomical Twilight 2:43 AM CDT 11:19 PM CDT
Moon 10:59 PM CDT (6/26) 9:16 AM CDT (6/26)
Length of Visible Light 16h 48m
Length of Day
15h 34m
Waning Gibbous, 85% of the Moon is Illuminated
Jun 26
Waning Gibbous
Jun 29
Last Quarter
Jul 8
New
Jul 15
First Quarter
Jul 22
Full

Hourly Weather History & Observations

Time (CDT) Temp. Heat Index Dew Point Humidity Pressure Visibility Wind Dir Wind Speed Gust Speed Precip Events Conditions
12:15 AM 66.2 °F - 66.2 °F 100% 29.81 in 7.0 mi SE 5.8 mph - N/A   Clear
12:35 AM 66.2 °F - 66.2 °F 100% 29.82 in 7.0 mi SE 3.5 mph - N/A   Clear
12:55 AM 68.0 °F - 68.0 °F 100% 29.82 in 7.0 mi SE 4.6 mph - N/A   Clear
1:15 AM 68.0 °F - 68.0 °F 100% 29.81 in 7.0 mi SE 4.6 mph - N/A   Mostly Cloudy
1:35 AM 68.0 °F - 68.0 °F 100% 29.81 in 7.0 mi ESE 4.6 mph - N/A   Mostly Cloudy
1:55 AM 66.2 °F - 66.2 °F 100% 29.80 in 7.0 mi SE 4.6 mph - N/A   Scattered Clouds
2:15 AM 66.2 °F - 66.2 °F 100% 29.80 in 7.0 mi SE 3.5 mph - N/A   Clear
2:35 AM 66.2 °F - 66.2 °F 100% 29.80 in 5.0 mi Calm Calm - N/A   Scattered Clouds
2:55 AM 68.0 °F - 68.0 °F 100% 29.80 in 7.0 mi ESE 4.6 mph - N/A   Overcast
3:15 AM 68.0 °F - 68.0 °F 100% 29.79 in 5.0 mi ESE 3.5 mph - N/A   Mostly Cloudy
3:35 AM 68.0 °F - 68.0 °F 100% 29.79 in 5.0 mi ESE 3.5 mph - N/A   Mostly Cloudy
3:55 AM 68.0 °F - 68.0 °F 100% 29.78 in 5.0 mi ESE 4.6 mph - N/A   Overcast
4:15 AM 68.0 °F - 68.0 °F 100% 29.78 in 5.0 mi ESE 4.6 mph - N/A   Overcast
4:35 AM 68.0 °F - 68.0 °F 100% 29.78 in 5.0 mi ESE 3.5 mph - N/A   Overcast
4:55 AM 68.0 °F - 68.0 °F 100% 29.78 in 3.0 mi East 3.5 mph - N/A   Overcast
5:15 AM 68.0 °F - 68.0 °F 100% 29.77 in 0.5 mi East 3.5 mph - N/A Fog Fog
5:35 AM 68.0 °F - 68.0 °F 100% 29.77 in 0.2 mi East 3.5 mph - N/A Fog Fog
5:45 AM 69.8 °F - 69.8 °F 100% 29.77 in 0.2 mi East 3.5 mph - N/A Fog Fog
6:53 AM 69.8 °F - 69.8 °F 100% 29.78 in 0.2 mi ESE 5.8 mph - N/A Fog Fog
7:55 AM 69.8 °F - 69.8 °F 100% 29.78 in 0.2 mi SE 5.8 mph - N/A Fog Fog
8:25 AM 69.8 °F - 69.8 °F 100% 29.78 in 0.5 mi ESE 5.8 mph - N/A Fog Fog
8:55 AM 71.6 °F - 71.6 °F 100% 29.78 in 1.5 mi SE 8.1 mph - N/A   Overcast
9:55 AM 71.6 °F - 71.6 °F 100% 29.79 in 2.0 mi South 5.8 mph - N/A   Overcast
10:50 AM 71.6 °F - 71.6 °F 100% 29.78 in 2.5 mi South 8.1 mph - N/A   Overcast
11:30 AM 75.2 °F - 73.4 °F 94% 29.77 in 7.0 mi SSE 3.5 mph - N/A   Scattered Clouds
11:52 AM 77.0 °F - 71.6 °F 83% 29.78 in 7.0 mi SSW 3.5 mph - N/A   Scattered Clouds
12:53 PM 78.8 °F - 71.6 °F 78% 29.78 in 7.0 mi South 8.1 mph - N/A   Scattered Clouds
1:45 PM 80.6 °F 84.6 °F 71.6 °F 74% 29.76 in 10.0 mi South 9.2 mph - N/A   Clear
2:50 PM 80.6 °F 83.9 °F 69.8 °F 70% 29.77 in 7.0 mi SSE 9.2 mph - N/A   Mostly Cloudy
3:45 PM 80.6 °F 83.9 °F 69.8 °F 70% 29.77 in 10.0 mi South 11.5 mph - N/A   Mostly Cloudy
4:45 PM 80.6 °F 83.9 °F 69.8 °F 70% 29.76 in 10.0 mi SSE 9.2 mph - N/A   Scattered Clouds
5:45 PM 78.8 °F - 69.8 °F 74% 29.75 in 7.0 mi SE 4.6 mph - N/A   Mostly Cloudy
6:45 PM 75.2 °F - 68.0 °F 78% 29.74 in 5.0 mi South 4.6 mph - N/A Thunderstorm Thunderstorm
7:10 PM 73.4 °F - 69.8 °F 88% 29.77 in 2.5 mi SSW 10.4 mph - N/A Rain , Thunderstorm Heavy Thunderstorms and Rain
7:45 PM 69.8 °F - 69.8 °F 100% 29.78 in 2.0 mi Calm Calm - N/A Rain , Thunderstorm Heavy Thunderstorms and Rain
8:09 PM 69.8 °F - 69.8 °F 100% 29.77 in 10.0 mi SE 11.5 mph - N/A   Scattered Clouds
8:45 PM 68.0 °F - 68.0 °F 100% 29.77 in 10.0 mi SW 3.5 mph - N/A   Mostly Cloudy
9:45 PM 66.2 °F - 66.2 °F 100% 29.79 in 10.0 mi ENE 6.9 mph - N/A   Clear
10:15 PM 64.4 °F - 64.4 °F 100% 29.79 in 10.0 mi East 4.6 mph - N/A   Clear
10:35 PM 64.4 °F - 64.4 °F 100% 29.79 in 10.0 mi ENE 4.6 mph - N/A   Clear
10:55 PM 64.4 °F - 64.4 °F 100% 29.79 in 10.0 mi Calm Calm - N/A   Scattered Clouds
11:15 PM 64.4 °F - 64.4 °F 100% 29.80 in 10.0 mi ENE 3.5 mph - N/A   Mostly Cloudy
11:35 PM 64.4 °F - 64.4 °F 100% 29.80 in 10.0 mi Calm Calm - N/A   Overcast
11:55 PM 64.4 °F - 64.4 °F 100% 29.80 in 10.0 mi Calm Calm - N/A   Overcast